Weather History for Aiken, SC

Change the Weather History Date:

Thursday, January 31, 2013

  Actual Average Record
Temperature  
Mean Temperature 44 °F -  
Max Temperature 51 °F 61 °F 66 °F (2012)
Min Temperature 37 °F 33 °F 17 °F (2014)
Degree Days  
Heating Degree Days 21    
Moisture  
Dew Point 31 °F    
Average Humidity 60    
Maximum Humidity 94    
Minimum Humidity 38    
Precipitation  
Precipitation 0.00 in - - ()
Sea Level Pressure  
Sea Level Pressure 30.01 in    
Wind  
Wind Speed 16 mph (West)    
Max Wind Speed 24 mph    
Max Gust Speed 43 mph    
Visibility 10 miles    
Events      
Averages and records for this station are not official NWS values.
T = Trace of Precipitation, MM = Missing Value Source: NWS Daily Summary

Daily Weather History Graph

Daily Weather History Graph

Search for Another Location

Airport:

Trip Planner

Search our weather history database for the weather conditions in past years. The results will help you decide how hot, cold, wet, or windy it might be!

Date:

Astronomy

Jan. 31, 2013 Rise Set
Actual Time 7:23 AM EST 5:57 PM EST
Civil Twilight 6:57 AM EST 6:23 PM EST
Nautical Twilight 6:27 AM EST 6:53 PM EST
Astronomical Twilight 5:58 AM EST 7:22 PM EST
Moon 10:40 PM EST (1/31) 9:38 AM EST (1/31)
Length of Visible Light 11h 25m
Length of Day
10h 33m
Waning Gibbous, 80% of the Moon is Illuminated
Jan 31
Waning Gibbous
Feb 3
Last Quarter
Feb 10
New
Feb 17
First Quarter
Feb 25
Full

Hourly Weather History & Observations

Time (EST) Temp. Windchill Dew Point Humidity Pressure Visibility Wind Dir Wind Speed Gust Speed Precip Events Conditions
12:15 AM 51.8 °F - 50.0 °F 94% 29.75 in 10.0 mi WSW 13.8 mph 17.3 mph N/A   Overcast
12:35 AM 51.8 °F - 50.0 °F 94% 29.75 in 10.0 mi WSW 15.0 mph 21.9 mph N/A   Overcast
12:55 AM 51.8 °F - 48.2 °F 88% 29.75 in 10.0 mi WSW 20.7 mph 29.9 mph N/A   Overcast
1:15 AM 51.8 °F - 50.0 °F 94% 29.75 in 10.0 mi WSW 17.3 mph 29.9 mph N/A   Overcast
1:35 AM 51.8 °F - 48.2 °F 88% 29.76 in 10.0 mi WSW 20.7 mph 27.6 mph N/A   Overcast
1:55 AM 51.8 °F - 46.4 °F 82% 29.77 in 10.0 mi WSW 19.6 mph 31.1 mph N/A   Overcast
2:15 AM 50.0 °F - 41.0 °F 71% 29.79 in 10.0 mi West 19.6 mph 42.6 mph N/A   Mostly Cloudy
2:35 AM 48.2 °F - 41.0 °F 76% 29.81 in 10.0 mi West 17.3 mph 27.6 mph N/A   Scattered Clouds
2:55 AM 46.4 °F 39.0 °F 37.4 °F 71% 29.83 in 10.0 mi West 19.6 mph 34.5 mph N/A   Scattered Clouds
3:15 AM 44.6 °F 36.9 °F 37.4 °F 76% 29.85 in 10.0 mi West 18.4 mph 38.0 mph N/A   Scattered Clouds
3:35 AM 44.6 °F 36.9 °F 35.6 °F 71% 29.86 in 10.0 mi West 18.4 mph 31.1 mph N/A   Clear
3:55 AM 44.6 °F 36.6 °F 33.8 °F 66% 29.86 in 10.0 mi West 19.6 mph 29.9 mph N/A   Clear
4:15 AM 42.8 °F 34.3 °F 33.8 °F 70% 29.87 in 10.0 mi West 19.6 mph 27.6 mph N/A   Clear
4:35 AM 42.8 °F 34.8 °F 33.8 °F 70% 29.87 in 10.0 mi West 17.3 mph 27.6 mph N/A   Clear
4:55 AM 42.8 °F 34.0 °F 32.0 °F 66% 29.88 in 10.0 mi West 20.7 mph 32.2 mph N/A   Clear
5:15 AM 41.0 °F 33.5 °F 32.0 °F 70% 29.89 in 10.0 mi West 13.8 mph 21.9 mph N/A   Clear
5:35 AM 41.0 °F 31.9 °F 32.0 °F 70% 29.90 in 10.0 mi West 19.6 mph 33.4 mph N/A   Clear
5:55 AM 41.0 °F 31.9 °F 32.0 °F 70% 29.92 in 10.0 mi West 19.6 mph 31.1 mph N/A   Clear
6:15 AM 39.2 °F 29.3 °F 30.2 °F 70% 29.94 in 10.0 mi West 20.7 mph 29.9 mph N/A   Clear
6:35 AM 39.2 °F 29.8 °F 30.2 °F 70% 29.96 in 10.0 mi West 18.4 mph 27.6 mph N/A   Clear
6:55 AM 37.4 °F 27.5 °F 30.2 °F 75% 29.97 in 10.0 mi West 18.4 mph 29.9 mph N/A   Clear
7:15 AM 37.4 °F 26.6 °F 28.4 °F 70% 29.98 in 10.0 mi West 21.9 mph 29.9 mph N/A   Clear
7:55 AM 37.4 °F 27.5 °F 28.4 °F 70% 30.00 in 10.0 mi West 18.4 mph 25.3 mph N/A   Clear
8:15 AM 39.2 °F 31.2 °F 28.4 °F 65% 30.01 in 10.0 mi West 13.8 mph 23.0 mph N/A   Clear
8:35 AM 39.2 °F 30.8 °F 30.2 °F 70% 30.02 in 10.0 mi West 15.0 mph 20.7 mph N/A   Clear
8:55 AM 41.0 °F 31.9 °F 30.2 °F 65% 30.02 in 10.0 mi West 19.6 mph 26.5 mph N/A   Clear
9:15 AM 41.0 °F 31.9 °F 30.2 °F 65% 30.03 in 10.0 mi West 19.6 mph 31.1 mph N/A   Clear
9:35 AM 42.8 °F 35.4 °F 30.2 °F 61% 30.03 in 10.0 mi West 15.0 mph 26.5 mph N/A   Clear
9:55 AM 42.8 °F 35.1 °F 28.4 °F 57% 30.04 in 10.0 mi West 16.1 mph 29.9 mph N/A   Clear
10:15 AM 42.8 °F 35.4 °F 28.4 °F 57% 30.04 in 10.0 mi WNW 15.0 mph 24.2 mph N/A   Clear
10:35 AM 44.6 °F 36.6 °F 30.2 °F 57% 30.05 in 10.0 mi West 19.6 mph 26.5 mph N/A   Clear
10:55 AM 44.6 °F 37.4 °F 28.4 °F 53% 30.05 in 10.0 mi West 16.1 mph 25.3 mph N/A   Clear
11:15 AM 46.4 °F 39.8 °F 28.4 °F 50% 30.05 in 10.0 mi West 16.1 mph 24.2 mph N/A   Clear
11:35 AM 46.4 °F 40.4 °F 26.6 °F 46% 30.05 in 10.0 mi West 13.8 mph 23.0 mph N/A   Clear
11:55 AM 48.2 °F - 26.6 °F 43% 30.06 in 10.0 mi WSW 16.1 mph 23.0 mph N/A   Clear
12:15 PM 48.2 °F - 26.6 °F 43% 30.06 in 10.0 mi West 17.3 mph 24.2 mph N/A   Clear
12:35 PM 50.0 °F - 28.4 °F 43% 30.06 in 10.0 mi WSW 13.8 mph 20.7 mph N/A   Clear
12:55 PM 50.0 °F - 28.4 °F 43% 30.05 in 10.0 mi West 20.7 mph 24.2 mph N/A   Clear
1:15 PM 51.8 °F - 28.4 °F 41% 30.05 in 10.0 mi West 18.4 mph 28.8 mph N/A   Clear
1:35 PM 51.8 °F - 28.4 °F 41% 30.05 in 10.0 mi WSW 19.6 mph 26.5 mph N/A   Clear
1:55 PM 51.8 °F - 28.4 °F 41% 30.05 in 10.0 mi West 20.7 mph 32.2 mph N/A   Clear
2:15 PM 51.8 °F - 26.6 °F 38% 30.04 in 10.0 mi West 20.7 mph 33.4 mph N/A   Clear
2:35 PM 51.8 °F - 26.6 °F 38% 30.05 in 10.0 mi West 18.4 mph 31.1 mph N/A   Clear
2:55 PM 51.8 °F - 26.6 °F 38% 30.05 in 10.0 mi West 20.7 mph 26.5 mph N/A   Clear
3:15 PM 51.8 °F - 26.6 °F 38% 30.05 in 10.0 mi West 24.2 mph 29.9 mph N/A   Clear
3:35 PM 51.8 °F - 26.6 °F 38% 30.06 in 10.0 mi West 20.7 mph 28.8 mph N/A   Clear
3:55 PM 51.8 °F - 26.6 °F 38% 30.07 in 10.0 mi West 19.6 mph 28.8 mph N/A   Clear
4:15 PM 51.8 °F - 26.6 °F 38% 30.08 in 10.0 mi WNW 18.4 mph 26.5 mph N/A   Clear
4:35 PM 51.8 °F - 26.6 °F 38% 30.08 in 10.0 mi West 13.8 mph 20.7 mph N/A   Clear
4:55 PM 51.8 °F - 26.6 °F 38% 30.08 in 10.0 mi West 20.7 mph 25.3 mph N/A   Clear
5:15 PM 50.0 °F - 26.6 °F 40% 30.09 in 10.0 mi West 16.1 mph 24.2 mph N/A   Clear
5:35 PM 48.2 °F - 26.6 °F 43% 30.09 in 10.0 mi West 10.4 mph 21.9 mph N/A   Clear
5:55 PM 46.4 °F 40.1 °F 26.6 °F 46% 30.09 in 10.0 mi West 15.0 mph 20.7 mph N/A   Clear
6:15 PM 46.4 °F 42.4 °F 26.6 °F 46% 30.10 in 10.0 mi West 8.1 mph - N/A   Clear
6:35 PM 44.6 °F 39.2 °F 26.6 °F 49% 30.11 in 10.0 mi West 10.4 mph - N/A   Clear
6:55 PM 44.6 °F 40.2 °F 28.4 °F 53% 30.12 in 10.0 mi WSW 8.1 mph - N/A   Clear
7:15 PM 42.8 °F 38.0 °F 28.4 °F 57% 30.12 in 10.0 mi WSW 8.1 mph - N/A   Clear
7:35 PM 41.0 °F 37.1 °F 28.4 °F 61% 30.13 in 10.0 mi WSW 5.8 mph - N/A   Clear
7:55 PM 41.0 °F 37.1 °F 28.4 °F 61% 30.13 in 10.0 mi WSW 5.8 mph - N/A   Clear
8:15 PM 41.0 °F 35.2 °F 28.4 °F 61% 30.13 in 10.0 mi WSW 9.2 mph - N/A   Clear
8:35 PM 41.0 °F 35.2 °F 30.2 °F 65% 30.15 in 10.0 mi WSW 9.2 mph - N/A   Clear
8:55 PM 41.0 °F 35.2 °F 28.4 °F 61% 30.15 in 10.0 mi WSW 9.2 mph - N/A   Clear
9:15 PM 41.0 °F 35.8 °F 28.4 °F 61% 30.16 in 10.0 mi SW 8.1 mph - N/A   Clear
9:35 PM 41.0 °F 35.8 °F 28.4 °F 61% 30.16 in 10.0 mi SW 8.1 mph - N/A   Clear
9:55 PM 41.0 °F 35.8 °F 28.4 °F 61% 30.17 in 10.0 mi WSW 8.1 mph - N/A   Clear
10:15 PM 41.0 °F 35.8 °F 28.4 °F 61% 30.17 in 10.0 mi WSW 8.1 mph - N/A   Clear
10:35 PM 39.2 °F 33.0 °F 28.4 °F 65% 30.18 in 10.0 mi WSW 9.2 mph - N/A   Clear
10:55 PM 41.0 °F 35.8 °F 28.4 °F 61% 30.18 in 10.0 mi WSW 8.1 mph - N/A   Clear
11:15 PM 39.2 °F 33.6 °F 28.4 °F 65% 30.18 in 10.0 mi WSW 8.1 mph - N/A   Clear
11:35 PM 39.2 °F 33.6 °F 28.4 °F 65% 30.19 in 10.0 mi SW 8.1 mph - N/A   Clear
11:55 PM 37.4 °F 31.4 °F 28.4 °F 70% 30.19 in 10.0 mi SW 8.1 mph - N/A   Clear